AirNav   Everest Fuels
 
 1117 users online  

5GA4 Air Acres Airport
Woodstock, Georgia, USA

GOING TO WOODSTOCK?


FAA INFORMATION EFFECTIVE 10 SEPTEMBER 2020

Location

FAA Identifier: 5GA4
Lat/Long: 34-06-21.3530N 084-26-54.7430W
34-06.355883N 084-26.912383W
34.1059314,-84.4485397
(estimated)
Elevation: 918 ft. / 279.8 m (surveyed)
Variation: 02W (1985)
From city: 3 miles E of WOODSTOCK, GA
Time zone: UTC -4 (UTC -5 during Standard Time)
Zip code: 30188

Airport Operations

Airport use: Private use. Permission required prior to landing
Activation date: 10/1978
Control tower: no
ARTCC: ATLANTA CENTER
FSS: MACON FLIGHT SERVICE STATION
Attendance: UNATNDD
Wind indicator: yes
Segmented circle: no

Airport Communications

WX AWOS-3PT at RYY (9 nm SW): PHONE 770-425-3406
WX AWOS-3 at CNI (12 nm N): 119.825 (770-704-6235)
WX ASOS at PDK (16 nm SE): 128.4 (770-457-1691)
WX ASOS at VPC (20 nm W): 120.525 (770-606-0375)
WX ASOS at FTY (20 nm S): PHONE 404-696-5660

Nearby radio navigation aids

VOR radial/distance  VOR name  Freq  Var
PDKr337/15.7PEACHTREE VOR/DME116.6005W
ATLr004/28.6ATLANTA VORTAC116.9005W
RMGr095/33.5ROME VORTAC115.4001E

 
NDB name  Hdg/Dist  Freq  Var  ID
CHERO173/9.041505WDJD -.. .--- -..
FLOWERY BRANCH261/27.536503WFKV ..-. -.- ...-

Airport Services

Runway Information

Runway 18/36

Dimensions: 2000 x 100 ft. / 610 x 30 m
Surface: turf
RUNWAY 18  RUNWAY 36
Traffic pattern: leftleft
Obstructions: hill, 1500 ft. from runwayhill, 2000 ft. from runway
AND PLINES.

Airport Ownership and Management from official FAA records

Ownership: Privately-owned
Owner: AAPO
296 AIR ACRES WAY
WOODSTOCK, GA 30188
Manager: AAPO
296 AIR ACRES WAY
WOODSTOCK, GA 30188

Airport Operational Statistics

Aircraft based on the field: 26
Single engine airplanes: 24
Multi engine airplanes: 1
Helicopters: 1
    

Additional Remarks

HIGH TENSION PLINES LESS THAN 1 MILE FM END OF RY 36.
UPSLOPE TERRAIN WITH TALL TREES LESS THAN 1 MILE FM END OF RY 18.
PPR BEFORE LANDING.
FOR CD CTC ATLANTA APCH AT 678-364-6131.

Instrument Procedures

There are no published instrument procedures at 5GA4.

Some nearby airports with instrument procedures:

KRYY - Cobb County International Airport-McCollum Field (9 nm SW)
KMGE - Dobbins Air Reserve Base (12 nm S)
KCNI - Cherokee County Regional Airport (12 nm N)
KPDK - Dekalb-Peachtree Airport (16 nm SE)
KVPC - Cartersville Airport (20 nm W)
KFTY - Fulton County Airport-Brown Field (20 nm S)
 
Loc | Ops | Rwys | IFR | FBO | Links
Com | Nav | Svcs | Stats | Notes
Area around 5GA4 (Air Acres Airport)
 
Road maps at: MapQuest Bing Google
 
Aerial photo
WARNING: Photo may not be current or correct
Aerial photo of 5GA4 (Air Acres Airport)
Photo taken 04-Aug-2018
looking north.

Do you have a better or more recent aerial photo of Air Acres Airport that you would like to share? If so, please send us your photo.

 
Sectional chart

 
Airport distance calculator
Flying to Air Acres Airport? Find the distance to fly.

From to 5GA4

Sunrise and sunset
Times for 28-Sep-2020
 Local
(UTC-4)
 Zulu
(UTC)
Morning civil twilight07:0711:07
Sunrise07:3211:32
Sunset19:2423:24
Evening civil twilight19:4923:49

Current date and time
Zulu (UTC)  29-Sep-2020 01:46:29
Local (UTC-4)  28-Sep-2020 21:46:29
 
METAR
KRYY 
9nm SW 
290128Z 18006KT 10SM TS SCT020 OVC060 25/19 A2988 RMK AO2 LTG DSNT SW-N TSB22 PRESRR $
KMGE 
12nm S 
290056Z 16004KT 10SM FEW050 SCT090 BKN250 24/19 A2986 RMK AO2A SLP104 T02420186 $
KCNI 
12nm N 
290110Z AUTO 00000KT 10SM SCT065 OVC100 22/20 A2990 RMK AO2
KPDK 
15nm SE 
290053Z 14003KT 10SM OVC090 23/19 A2986 RMK AO2 SLP100 T02280194
KFTY 
20nm S 
290053Z 15006KT 10SM SCT080 OVC100 25/18 A2985 RMK AO2 LTG DSNT NW SLP100 T02500183
TAF
KRYY 
9nm SW 
281720Z 2818/2918 21008KT P6SM SCT030 SCT050 FM282300 26005KT P6SM VCSH SCT040 BKN080 FM290200 28005KT P6SM -SHRA SCT015 BKN040 PROB30 2903/2906 4SM TSRA BKN012CB FM290600 30008KT 6SM -SHRA BKN005 OVC030 FM291400 31010KT P6SM -SHRA BKN006 OVC040
KMGE 
12nm S 
282114Z 2821/3003 19009KT 9999 SCT050 BKN250 QNH2980INS BECMG 2901/2902 21010G15KT 8000 -SHRA BR BKN015 BKN050 BKN090 BKN250 QNH2982INS BECMG 2904/2905 24010G15KT 6000 -SHRA BR VCTS BKN010CB OVC050 QNH2978INS BECMG 2908/2909 30010G15KT 4800 SHRA BR OVC008 QNH2978INS BECMG 2915/2916 31012G20KT 9999 NSW SCT010 BKN025 BKN080 BKN250 QNH2981INS BECMG 2922/2923 32015G25KT 9999 FEW040 FEW250 510008 QNH2985INS TX27/2822Z TN15/2912Z
KPDK 
15nm SE 
281720Z 2818/2918 20007KT P6SM SCT030 SCT050 FM282300 22005KT P6SM VCSH SCT040 BKN080 FM290200 28006KT P6SM -SHRA SCT015 BKN040 PROB30 2903/2906 4SM TSRA BKN012CB FM290600 30008KT 6SM -SHRA BKN005 OVC030 FM291400 30010KT P6SM -SHRA BKN006 OVC040
KFTY 
20nm S 
281720Z 2818/2918 20007KT P6SM SCT030 SCT050 FM282300 22005KT P6SM VCSH SCT040 BKN080 FM290200 26005KT P6SM -SHRA SCT015 BKN040 PROB30 2903/2906 4SM TSRA BKN012CB FM290600 30007KT 6SM -SHRA BKN005 OVC030 FM291400 32009KT P6SM -SHRA BKN006 OVC040
NOTAMs
Click for the latest NOTAMs
NOTAMs are issued by the DoD/FAA and will open in a separate window not controlled by AirNav.

 

 
 

Would you like to see your business listed on this page?

 If your business provides an interesting product or service to pilots, flight crews, aircraft, or users of the Air Acres Airport, you should consider listing it here.  To start the listing process, click on the button below
 
Add a business
 

Other Pages about Air Acres Airport

Update a link
 
Copyright © AirNav, LLC. All rights reserved. Privacy Policy  Contact